KA7RAI Weather Reports


time (UTC)temp
C
wind
direction
speed
KPH
gust
KPH
rain 1hr
cm
rain 24hr
cm
rain mn
cm
humidity
%
barometer
mb
20260507213505 35 40 1.6 3.2 0.00 0.00 0.00 10 1009.0
20260507213004 35 283 3.2 6.4 0.00 0.00 0.00 10 1009.0
20260507212503 35 170 1.6 4.8 0.00 0.00 0.00 10 1009.0
20260507212003 35 84 1.6 3.2 0.00 0.00 0.00 10 1010.0
20260507211504 35 245 1.6 4.8 0.00 0.00 0.00 10 1010.0
20260507211004 35 228 3.2 8.0 0.00 0.00 0.00 10 1010.0
20260507210504 35 325 6.4 9.7 0.00 0.00 0.00 10 1010.0
20260507210003 35 315 3.2 6.4 0.00 0.00 0.00 10 1010.0
20260507205503 35 199 3.2 6.4 0.00 0.00 0.00 10 1010.0
20260507205004 35 189 3.2 6.4 0.00 0.00 0.00 10 1010.0
20260507204504 35 216 1.6 3.2 0.00 0.00 0.00 10 1010.0
20260507204003 35 178 3.2 3.2 0.00 0.00 0.00 10 1010.0
20260507203503 35 144 3.2 6.4 0.00 0.00 0.00 10 1010.0
20260507203007 35 299 1.6 4.8 0.00 0.00 0.00 10 1010.0
20260507202504 34 306 1.6 4.8 0.00 0.00 0.00 10 1010.0
20260507202004 34 294 3.2 6.4 0.00 0.00 0.00 10 1010.0
20260507201503 34 284 3.2 6.4 0.00 0.00 0.00 10 1010.0
20260507201003 34 304 3.2 6.4 0.00 0.00 0.00 11 1010.0
20260507200504 34 153 4.8 8.0 0.00 0.00 0.00 10 1010.0
20260507200003 33 313 3.2 6.4 0.00 0.00 0.00 11 1011.0
20260507195504 34 332 4.8 6.4 0.00 0.00 0.00 11 1011.0
20260507195003 33 297 3.2 6.4 0.00 0.00 0.00 11 1011.0
20260507194503 33 296 3.2 8.0 0.00 0.00 0.00 11 1011.0
20260507194004 33 311 6.4 12.9 0.00 0.00 0.00 11 1011.0
20260507193504 33 305 6.4 12.9 0.00 0.00 0.00 12 1011.0
20260507193003 33 312 6.4 9.7 0.00 0.00 0.00 12 1011.0
20260507192503 33 304 6.4 8.0 0.00 0.00 0.00 12 1011.0
20260507192004 33 197 1.6 3.2 0.00 0.00 0.00 12 1011.0
20260507191506 33 188 1.6 4.8 0.00 0.00 0.00 12 1011.0
20260507191003 33 177 3.2 4.8 0.00 0.00 0.00 12 1011.0
20260507190504 33 185 4.8 8.0 0.00 0.00 0.00 12 1011.0
20260507190005 33 173 3.2 9.7 0.00 0.00 0.00 12 1011.0
20260507185506 32 295 6.4 12.9 0.00 0.00 0.00 13 1012.0
20260507185003 32 201 1.6 3.2 0.00 0.00 0.00 13 1012.0
20260507184503 32 182 1.6 3.2 0.00 0.00 0.00 13 1012.0
20260507184004 31 290 0.0 1.6 0.00 0.00 0.00 13 1012.0
20260507183503 31 180 3.2 6.4 0.00 0.00 0.00 13 1012.0
20260507183004 31 177 3.2 8.0 0.00 0.00 0.00 14 1012.0
20260507182503 31 155 1.6 4.8 0.00 0.00 0.00 13 1012.0
20260507182004 32 176 1.6 3.2 0.00 0.00 0.00 13 1012.0
20260507181504 31 22 1.6 3.2 0.00 0.00 0.00 14 1012.0
20260507181003 31 297 1.6 3.2 0.00 0.00 0.00 14 1012.0
20260507180504 31 227 1.6 4.8 0.00 0.00 0.00 15 1012.0
20260507180007 31 181 1.6 3.2 0.00 0.00 0.00 14 1012.0
20260507175504 31 187 1.6 3.2 0.00 0.00 0.00 14 1012.0
20260507175003 31 186 1.6 3.2 0.00 0.00 0.00 15 1012.0
20260507174503 31 131 1.6 3.2 0.00 0.00 0.00 16 1013.0
20260507174003 30 310 1.6 4.8 0.00 0.00 0.00 15 1013.0
20260507173505 30 282 3.2 4.8 0.00 0.00 0.00 16 1013.0
20260507173003 30 177 3.2 6.4 0.00 0.00 0.00 17 1013.0
20260507172504 30 168 0.0 3.2 0.00 0.00 0.00 17 1013.0
20260507172005 29 238 1.6 3.2 0.00 0.00 0.00 16 1013.0
20260507171504 29 167 3.2 4.8 0.00 0.00 0.00 18 1013.0
20260507171003 28 302 1.6 4.8 0.00 0.00 0.00 20 1013.0
20260507170506 28 329 3.2 6.4 0.00 0.00 0.00 20 1013.0
20260507170006 28 187 1.6 4.8 0.00 0.00 0.00 20 1013.0
20260507165503 28 176 3.2 6.4 0.00 0.00 0.00 20 1013.0
20260507165007 28 330 0.0 1.6 0.00 0.00 0.00 21 1013.0
20260507164503 28 178 1.6 4.8 0.00 0.00 0.00 22 1013.0
20260507164005 28 166 1.6 4.8 0.00 0.00 0.00 23 1013.0
20260507163506 27 335 1.6 3.2 0.00 0.00 0.00 24 1013.0
20260507163005 27 203 1.6 3.2 0.00 0.00 0.00 24 1013.0
20260507162503 27 170 1.6 3.2 0.00 0.00 0.00 25 1013.0
20260507162003 26 164 0.0 3.2 0.00 0.00 0.00 26 1013.0
20260507161503 26 165 1.6 3.2 0.00 0.00 0.00 25 1013.0
20260507161007 26 177 0.0 1.6 0.00 0.00 0.00 25 1013.0
20260507160503 26 275 0.0 4.8 0.00 0.00 0.00 27 1014.0
20260507160005 26 159 0.0 3.2 0.00 0.00 0.00 28 1014.0
20260507155503 25 179 0.0 1.6 0.00 0.00 0.00 29 1014.0
20260507155003 25 182 0.0 1.6 0.00 0.00 0.00 30 1014.0
20260507154505 25 161 1.6 3.2 0.00 0.00 0.00 30 1014.0
20260507154009 24 271 0.0 3.2 0.00 0.00 0.00 31 1014.0
20260507153058 23 238 0.0 1.6 0.00 0.00 0.00 32 1014.0
20260507152503 23 17 0.0 3.2 0.00 0.00 0.00 33 1014.0
20260507152003 22 205 1.6 3.2 0.00 0.00 0.00 33 1014.0
20260507151506 22 280 1.6 3.2 0.00 0.00 0.00 34 1014.0
20260507151003 22 171 1.6 3.2 0.00 0.00 0.00 35 1014.0
20260507150504 22 174 1.6 3.2 0.00 0.00 0.00 34 1014.0
20260507150008 22 154 1.6 3.2 0.00 0.00 0.00 35 1014.0
20260507145504 22 337 0.0 1.6 0.00 0.00 0.00 35 1014.0
20260507145004 22 222 1.6 3.2 0.00 0.00 0.00 33 1014.0
20260507144506 22 222 1.6 3.2 0.00 0.00 0.00 34 1014.0
20260507144004 21 61 1.6 3.2 0.00 0.00 0.00 34 1014.0
20260507143508 21 222 1.6 3.2 0.00 0.00 0.00 34 1014.0
20260507143003 21 52 1.6 3.2 0.00 0.00 0.00 35 1014.0
20260507142503 21 224 1.6 1.6 0.00 0.00 0.00 35 1014.0
20260507142005 21 68 1.6 3.2 0.00 0.00 0.00 34 1014.0
20260507141504 21 225 1.6 1.6 0.00 0.00 0.00 34 1014.0
20260507141004 21 50 1.6 1.6 0.00 0.00 0.00 33 1014.0
20260507140505 20 51 1.6 1.6 0.00 0.00 0.00 34 1014.0
20260507140011 20 49 1.6 1.6 0.00 0.00 0.00 36 1014.0
20260507135506 20 112 1.6 1.6 0.00 0.00 0.00 35 1014.0
20260507135008 19 48 1.6 1.6 0.00 0.00 0.00 36 1014.0
20260507134504 19 115 1.6 1.6 0.00 0.00 0.00 36 1014.0
20260507134004 18 165 1.6 1.6 0.00 0.00 0.00 36 1013.0
20260507133504 18 52 1.6 1.6 0.00 0.00 0.00 37 1013.0
20260507133003 18 51 1.6 1.6 0.00 0.00 0.00 37 1013.0
20260507132508 18 46 1.6 1.6 0.00 0.00 0.00 36 1013.0
20260507132007 18 46 1.6 1.6 0.00 0.00 0.00 38 1013.0
20260507131503 18 46 1.6 1.6 0.00 0.00 0.00 37 1013.0
20260507131008 18 49 1.6 1.6 0.00 0.00 0.00 37 1013.0
20260507130505 18 48 1.6 1.6 0.00 0.00 0.00 36 1013.0
20260507130004 18 47 1.6 1.6 0.00 0.00 0.00 36 1013.0
20260507125503 18 72 1.6 3.2 0.00 0.00 0.00 35 1013.0
20260507125006 18 35 1.6 3.2 0.00 0.00 0.00 35 1013.0
20260507124504 18 25 3.2 6.4 0.00 0.00 0.00 35 1013.0
20260507124003 18 17 8.0 11.3 0.00 0.00 0.00 35 1013.0
20260507123505 18 1 8.0 11.3 0.00 0.00 0.00 35 1013.0
20260507123003 18 12 6.4 8.0 0.00 0.00 0.00 35 1013.0
20260507122503 18 340 6.4 6.4 0.00 0.00 0.00 35 1013.0
20260507122003 18 29 4.8 8.0 0.00 0.00 0.00 34 1013.0
20260507121503 18 26 4.8 6.4 0.00 0.00 0.00 35 1013.0
20260507121007 18 40 3.2 4.8 0.00 0.00 0.00 35 1013.0
20260507120504 18 48 3.2 3.2 0.00 0.00 0.00 35 1013.0
20260507120005 18 50 3.2 3.2 0.00 0.00 0.00 35 1013.0
20260507115503 18 53 3.2 3.2 0.00 0.00 0.00 34 1013.0
20260507115007 18 55 3.2 3.2 0.00 0.00 0.00 35 1013.0
20260507114504 18 50 1.6 3.2 0.00 0.00 0.00 35 1013.0
20260507114004 18 64 1.6 3.2 0.00 0.00 0.00 36 1013.0
20260507113505 18 51 1.6 1.6 0.00 0.00 0.00 36 1013.0
20260507113006 18 50 0.0 1.6 0.00 0.00 0.00 36 1013.0
20260507112504 18 38 1.6 1.6 0.00 0.00 0.00 36 1013.0
20260507112003 18 41 3.2 6.4 0.00 0.00 0.00 36 1013.0
20260507111504 18 44 3.2 8.0 0.00 0.00 0.00 37 1013.0
20260507111004 18 41 3.2 6.4 0.00 0.00 0.00 37 1013.0
20260507110503 18 49 1.6 3.2 0.00 0.00 0.00 38 1013.0
20260507110003 18 61 1.6 1.6 0.00 0.00 0.00 38 1013.0
20260507105505 18 33 3.2 6.4 0.00 0.00 0.00 38 1013.0
20260507105003 18 45 4.8 8.0 0.00 0.00 0.00 39 1013.0
20260507104503 18 35 1.6 4.8 0.00 0.00 0.00 39 1013.0
20260507104004 17 30 3.2 4.8 0.00 0.00 0.00 40 1013.0
20260507103504 17 30 3.2 3.2 0.00 0.00 0.00 40 1013.0
20260507103003 17 63 1.6 1.6 0.00 0.00 0.00 41 1013.0
20260507102503 16 52 3.2 4.8 0.00 0.00 0.00 43 1013.0
20260507102007 16 70 1.6 1.6 0.00 0.00 0.00 45 1013.0
20260507101507 16 135 1.6 1.6 0.00 0.00 0.00 44 1014.0
20260507101003 17 121 0.0 1.6 0.00 0.00 0.00 44 1014.0
20260507100503 17 126 0.0 1.6 0.00 0.00 0.00 42 1014.0
20260507100005 17 118 1.6 1.6 0.00 0.00 0.00 42 1014.0
20260507095505 17 63 1.6 1.6 0.00 0.00 0.00 46 1014.0
20260507095003 18 47 0.0 1.6 0.00 0.00 0.00 40 1014.0
20260507094505 18 47 1.6 1.6 0.00 0.00 0.00 40 1014.0
20260507094005 18 50 3.2 6.4 0.00 0.00 0.00 40 1014.0
20260507093504 18 56 1.6 1.6 0.00 0.00 0.00 40 1014.0
20260507093006 17 62 3.2 3.2 0.00 0.00 0.00 40 1014.0
20260507092504 17 87 1.6 3.2 0.00 0.00 0.00 40 1014.0
20260507092007 17 46 1.6 1.6 0.00 0.00 0.00 41 1014.0
20260507091503 17 65 1.6 3.2 0.00 0.00 0.00 40 1014.0
20260507091003 18 63 1.6 1.6 0.00 0.00 0.00 41 1014.0
20260507090504 18 71 0.0 0.0 0.00 0.00 0.00 39 1014.0
20260507090007 18 74 1.6 1.6 0.00 0.00 0.00 38 1014.0
20260507085504 18 65 0.0 1.6 0.00 0.00 0.00 37 1014.0
20260507085003 19 69 1.6 1.6 0.00 0.00 0.00 37 1014.0
20260507084504 19 45 4.8 8.0 0.00 0.00 0.00 37 1014.0
20260507084004 19 53 1.6 1.6 0.00 0.00 0.00 37 1014.0
20260507083503 19 47 0.0 1.6 0.00 0.00 0.00 37 1014.0
20260507083004 20 64 1.6 1.6 0.00 0.00 0.00 36 1014.0
20260507082508 20 58 1.6 4.8 0.00 0.00 0.00 36 1014.0
20260507082003 19 58 1.6 3.2 0.00 0.00 0.00 36 1014.0
20260507081506 19 48 1.6 3.2 0.00 0.00 0.00 37 1014.0
20260507081005 19 53 1.6 1.6 0.00 0.00 0.00 38 1014.0
20260507080503 18 48 3.2 3.2 0.00 0.00 0.00 38 1014.0
20260507080003 18 44 3.2 8.0 0.00 0.00 0.00 40 1014.0
20260507075503 18 44 1.6 4.8 0.00 0.00 0.00 40 1014.0
20260507075003 18 47 1.6 3.2 0.00 0.00 0.00 41 1014.0
20260507074503 18 48 1.6 1.6 0.00 0.00 0.00 41 1014.0
20260507074005 18 47 1.6 1.6 0.00 0.00 0.00 40 1014.0
20260507073508 18 52 1.6 1.6 0.00 0.00 0.00 39 1014.0
20260507073006 18 48 1.6 3.2 0.00 0.00 0.00 39 1014.0
20260507072507 19 49 1.6 3.2 0.00 0.00 0.00 37 1014.0
20260507072003 19 46 1.6 8.0 0.00 0.00 0.00 37 1014.0
20260507071505 19 59 1.6 1.6 0.00 0.00 0.00 36 1014.0
20260507071003 19 58 1.6 3.2 0.00 0.00 0.00 38 1014.0
20260507070503 19 73 0.0 1.6 0.00 0.00 0.00 36 1014.0
20260507070007 20 55 1.6 1.6 0.00 0.00 0.00 36 1014.0
20260507065503 20 70 1.6 1.6 0.00 0.00 0.00 35 1014.0
20260507065005 20 136 1.6 4.8 0.00 0.00 0.00 35 1014.0
20260507064506 20 62 1.6 3.2 0.00 0.00 0.00 34 1014.0
20260507064003 20 55 1.6 1.6 0.00 0.00 0.00 33 1014.0
20260507063503 21 87 0.0 3.2 0.00 0.00 0.00 33 1014.0
20260507063004 20 192 1.6 4.8 0.00 0.00 0.00 33 1014.0
20260507062503 20 178 3.2 6.4 0.00 0.00 0.00 33 1014.0
20260507062010 20 142 1.6 3.2 0.00 0.00 0.00 35 1014.0
20260507061503 20 76 1.6 1.6 0.00 0.00 0.00 34 1014.0
20260507061004 20 58 1.6 1.6 0.00 0.00 0.00 34 1014.0
20260507060504 20 106 0.0 6.4 0.00 0.00 0.00 33 1014.0
20260507060006 20 66 1.6 1.6 0.00 0.00 0.00 33 1014.0
20260507055503 21 87 1.6 1.6 0.00 0.00 0.00 32 1014.0
20260507055004 21 75 1.6 1.6 0.00 0.00 0.00 31 1014.0
20260507054505 20 48 1.6 3.2 0.00 0.00 0.00 32 1014.0
20260507054003 21 74 1.6 1.6 0.00 0.00 0.00 32 1014.0
20260507053503 21 68 0.0 1.6 0.00 0.00 0.00 31 1014.0
20260507053005 21 66 0.0 1.6 0.00 0.00 0.00 30 1014.0
20260507052504 21 138 0.0 1.6 0.00 0.00 0.00 30 1014.0
20260507052003 21 96 1.6 4.8 0.00 0.00 0.00 30 1014.0
20260507051503 21 162 1.6 3.2 0.00 0.00 0.00 31 1014.0
20260507051005 21 97 0.0 1.6 0.00 0.00 0.00 30 1014.0
20260507050503 22 88 0.0 1.6 0.00 0.00 0.00 29 1014.0
20260507050003 22 66 0.0 1.6 0.00 0.00 0.00 29 1014.0
20260507045503 22 68 0.0 1.6 0.00 0.00 0.00 30 1014.0
20260507045005 22 74 0.0 1.6 0.00 0.00 0.00 30 1014.0
20260507044503 22 114 0.0 1.6 0.00 0.00 0.00 28 1014.0
20260507044003 22 86 0.0 1.6 0.00 0.00 0.00 28 1014.0
20260507043503 23 40 0.0 3.2 0.00 0.00 0.00 28 1014.0
20260507043003 23 139 0.0 1.6 0.00 0.00 0.00 27 1014.0
20260507042504 23 183 0.0 1.6 0.00 0.00 0.00 26 1014.0
20260507042004 23 83 1.6 3.2 0.00 0.00 0.00 27 1014.0
20260507041503 23 86 0.0 1.6 0.00 0.00 0.00 26 1013.0
20260507041003 23 73 0.0 1.6 0.00 0.00 0.00 27 1013.0
20260507040504 23 103 0.0 0.0 0.00 0.00 0.00 26 1013.0
20260507040003 24 354 0.0 0.0 0.00 0.00 0.00 26 1013.0
20260507035504 24 75 0.0 3.2 0.00 0.00 0.00 26 1013.0
20260507035003 24 0 0.0 0.0 0.00 0.00 0.00 25 1013.0
20260507034504 25 127 0.0 0.0 0.00 0.00 0.00 24 1013.0
20260507034003 25 142 0.0 0.0 0.00 0.00 0.00 23 1013.0
20260507033505 25 115 0.0 1.6 0.00 0.00 0.00 24 1013.0
20260507033003 25 0 0.0 0.0 0.00 0.00 0.00 24 1013.0
20260507032504 25 4 0.0 0.0 0.00 0.00 0.00 24 1013.0
20260507032004 25 172 0.0 1.6 0.00 0.00 0.00 23 1013.0
20260507031505 25 0 0.0 0.0 0.00 0.00 0.00 23 1013.0
20260507031006 26 355 0.0 1.6 0.00 0.00 0.00 22 1013.0
20260507030506 26 227 0.0 1.6 0.00 0.00 0.00 22 1013.0
20260507030005 26 256 0.0 1.6 0.00 0.00 0.00 22 1013.0
20260507025505 26 131 0.0 0.0 0.00 0.00 0.00 22 1013.0
20260507025003 26 153 0.0 1.6 0.00 0.00 0.00 21 1013.0
20260507024503 26 165 0.0 3.2 0.00 0.00 0.00 21 1012.0
20260507024007 26 212 0.0 1.6 0.00 0.00 0.00 21 1012.0
20260507023506 26 130 0.0 1.6 0.00 0.00 0.00 21 1012.0
20260507023005 27 134 1.6 3.2 0.00 0.00 0.00 21 1012.0
20260507022503 27 212 0.0 1.6 0.00 0.00 0.00 21 1012.0
20260507022003 27 200 1.6 3.2 0.00 0.00 0.00 20 1012.0
20260507021508 27 312 0.0 3.2 0.00 0.00 0.00 20 1012.0
20260507021003 27 147 1.6 3.2 0.00 0.00 0.00 20 1012.0
20260507020508 27 272 0.0 1.6 0.00 0.00 0.00 20 1012.0
20260507020003 27 252 1.6 3.2 0.00 0.00 0.00 20 1012.0
20260507015503 28 163 1.6 3.2 0.00 0.00 0.00 20 1012.0
20260507015005 28 189 3.2 3.2 0.00 0.00 0.00 20 1012.0
20260507014506 28 144 1.6 4.8 0.00 0.00 0.00 20 1012.0
20260507014006 29 133 1.6 3.2 0.00 0.00 0.00 19 1012.0
20260507013504 29 303 3.2 4.8 0.00 0.00 0.00 19 1012.0
20260507013008 29 164 0.0 1.6 0.00 0.00 0.00 19 1012.0
20260507012503 29 145 0.0 1.6 0.00 0.00 0.00 19 1012.0
20260507012008 29 169 0.0 1.6 0.00 0.00 0.00 19 1012.0
20260507011505 29 311 3.2 6.4 0.00 0.00 0.00 19 1012.0
20260507011004 29 264 1.6 3.2 0.00 0.00 0.00 19 1012.0
20260507010508 29 307 3.2 8.0 0.00 0.00 0.00 19 1012.0
20260507010003 29 259 1.6 3.2 0.00 0.00 0.00 19 1012.0
20260507005503 29 299 3.2 6.4 0.00 0.00 0.00 19 1012.0
20260507005003 30 165 1.6 6.4 0.00 0.00 0.00 19 1012.0
20260507004503 30 163 1.6 3.2 0.00 0.00 0.00 18 1012.0
20260507004003 30 314 3.2 4.8 0.00 0.00 0.00 18 1012.0
20260507003503 30 289 0.0 3.2 0.00 0.00 0.00 18 1012.0
20260507003005 30 323 1.6 3.2 0.00 0.00 0.00 18 1012.0
20260507002503 29 327 3.2 8.0 0.00 0.00 0.00 18 1012.0
20260507002005 29 297 1.6 4.8 0.00 0.00 0.00 19 1012.0
20260507001507 29 298 1.6 9.7 0.00 0.00 0.00 19 1012.0
20260507001007 30 352 1.6 3.2 0.00 0.00 0.00 18 1012.0
20260507000503 29 293 3.2 4.8 0.00 0.00 0.00 19 1012.0
20260507000004 29 298 1.6 3.2 0.00 0.00 0.00 19 1012.0
20260506235504 29 292 3.2 6.4 0.00 0.00 0.00 19 1012.0
20260506235005 30 320 3.2 4.8 0.00 0.00 0.00 19 1012.0
20260506234507 30 315 3.2 9.7 0.00 0.00 0.00 19 1012.0
20260506234003 30 284 3.2 9.7 0.00 0.00 0.00 18 1012.0
20260506233507 30 330 4.8 8.0 0.00 0.00 0.00 18 1012.0
20260506233007 29 248 0.0 3.2 0.00 0.00 0.00 19 1012.0
20260506232504 30 129 3.2 4.8 0.00 0.00 0.00 19 1012.0
20260506232004 30 194 1.6 3.2 0.00 0.00 0.00 19 1012.0
20260506231503 30 344 4.8 6.4 0.00 0.00 0.00 19 1012.0
20260506231003 29 3 4.8 9.7 0.00 0.00 0.00 19 1012.0
20260506230506 30 306 4.8 9.7 0.00 0.00 0.00 19 1012.0
20260506230003 30 303 3.2 6.4 0.00 0.00 0.00 18 1012.0
20260506225508 30 321 3.2 6.4 0.00 0.00 0.00 19 1012.0
20260506225003 30 236 3.2 6.4 0.00 0.00 0.00 19 1012.0
20260506224504 30 147 3.2 6.4 0.00 0.00 0.00 18 1012.0
20260506224006 30 316 3.2 4.8 0.00 0.00 0.00 18 1012.0
20260506223508 30 298 1.6 4.8 0.00 0.00 0.00 18 1012.0
20260506223004 29 190 1.6 4.8 0.00 0.00 0.00 18 1012.0
20260506222507 29 1 3.2 6.4 0.00 0.00 0.00 19 1013.0
20260506222004 29 176 1.6 4.8 0.00 0.00 0.00 19 1013.0
20260506221505 30 300 3.2 9.7 0.00 0.00 0.00 18 1013.0
20260506221004 29 6 3.2 4.8 0.00 0.00 0.00 19 1013.0
20260506220504 29 185 1.6 4.8 0.00 0.00 0.00 19 1013.0
20260506220004 29 303 1.6 4.8 0.00 0.00 0.00 19 1013.0
20260506215508 28 156 3.2 4.8 0.00 0.00 0.00 19 1013.0
20260506214521 28 312 4.8 8.0 0.00 0.00 0.00 20 1013.0
20260506214003 28 325 4.8 8.0 0.00 0.00 0.00 20 1013.0